[[{"header":{"parameterUnit":"m.s-1","parameterCategory":1,"la1":30.2991,"la2":30.254,"lo1":-89.0895,"lo2":-89.0444,"dy":0.0017,"dx":0.0017,"nx":28,"ny":28,"refTime":"2024-02-26T09:00:00:Z","depth":0,"parameterNumber":2,"parameterNumberName":"U-component_of_WINDS"},"data":[0,0,0,0,0,0,0,0,0,0,0,0,0,0,0,0,0,0,0,0,0,0,0,0,0,0,0,0,0,0,0,0,0,0,0,0,0,0,0,0,0,0,0,0,0,0,0,0,0,0,0,0,0,0,0,0,0,0,-1.5942,-1.5943,0,-1.604,-1.6041,-1.6042,-1.6083,-1.6082,-1.6082,-1.6082,-1.6181,-1.6183,-1.6186,0,0,0,0,0,0,0,0,0,0,0,0,0,-1.5786,-1.5789,-1.5942,-1.5943,-1.5944,-1.604,-1.6041,-1.6042,-1.6083,-1.6082,-1.6082,-1.6082,-1.618,-1.6183,-1.6187,0,0,0,0,0,0,0,0,0,0,0,0,0,-1.5866,-1.5789,-1.5941,-1.5976,-1.598,-1.6039,-1.6041,-1.6043,-1.6083,-1.6082,-1.6082,-1.6082,-1.6179,-1.6183,-1.6187,-1.6219,0,0,-1.62,-1.6202,0,0,0,0,0,0,0,0,-1.5861,-1.5871,-1.5969,-1.5973,-1.5978,-1.6049,-1.6023,-1.6102,-1.6083,-1.6043,-1.6082,-1.6082,-1.6137,-1.6145,-1.6164,-1.6224,-1.6228,-1.62,-1.6203,-1.6205,-1.6206,0,0,0,0,0,0,0,-1.5856,-1.5867,-1.598,-1.5971,-1.5976,-1.5985,-1.5996,-1.6038,-1.6091,-1.6047,-1.605,-1.6061,-1.6139,-1.6159,-1.6166,-1.623,-1.62,-1.6204,-1.6207,-1.6208,-1.632,-1.6321,0,0,0,0,0,0,-1.5845,-1.5862,-1.5977,-1.5983,-1.5918,-1.5988,-1.6001,-1.6026,-1.609,-1.61,-1.6061,-1.6063,-1.6152,-1.6161,-1.617,-1.6212,-1.6205,-1.6209,-1.6211,-1.632,-1.6321,-1.6321,0,0,0,0,0,0,-1.5841,-1.5855,-1.5973,-1.5924,-1.594,-1.5991,-1.602,-1.6028,-1.6049,-1.6101,-1.6111,-1.6073,-1.6152,-1.6164,-1.6207,-1.6215,-1.6211,-1.6214,-1.632,-1.632,-1.6321,-1.6295,0,0,0,0,0,0,-1.5837,-1.5853,-1.5867,-1.5924,-1.5942,-1.6009,-1.602,-1.6031,-1.6056,-1.6059,-1.6114,-1.6123,-1.6153,-1.62,-1.6211,-1.6221,-1.6218,-1.6319,-1.632,-1.6321,-1.6295,-1.6295,-1.6294,0,0,0,0,0,-1.5831,-1.5855,-1.5867,-1.5881,-1.596,-1.601,-1.602,-1.6055,-1.6057,-1.607,-1.6104,-1.6121,-1.6213,-1.6204,-1.6217,-1.6228,-1.6319,-1.632,-1.6321,-1.6296,-1.6295,-1.6294,0,0,0,0,0,0,-1.5798,-1.5864,-1.5877,-1.5921,-1.596,-1.6016,-1.6035,-1.6053,-1.6091,-1.6092,-1.6132,-1.6144,-1.6184,-1.621,-1.62,-1.6262,-1.6267,-1.627,-1.6244,-1.6244,-1.6243,-1.6236,-1.6221,0,0,0,0,0,-1.5795,-1.5831,-1.5886,-1.592,-1.5938,-1.5983,-1.6006,-1.6029,-1.607,-1.6086,-1.6123,-1.6162,-1.6199,-1.6223,-1.626,-1.6299,-1.6312,-1.6313,-1.6313,-1.6312,-1.6315,-1.6337,-1.6338,-1.6324,-1.6324,-1.6324,0,0,-1.5791,-1.5832,-1.5851,-1.5914,-1.5946,-1.5981,-1.5996,-1.6033,-1.6058,-1.6092,-1.6134,-1.6162,-1.6208,-1.6249,-1.6269,-1.6272,-1.6321,-1.6313,-1.6312,-1.6316,-1.6338,-1.6339,-1.634,-1.6325,-1.6325,-1.6325,0,0,-1.5801,-1.5836,-1.5867,-1.5899,-1.5948,-1.5977,-1.5984,-1.6039,-1.6059,-1.6102,-1.6127,-1.6158,-1.6222,-1.6253,-1.6277,-1.6298,-1.6315,-1.6308,-1.6306,-1.6326,-1.6327,-1.6329,-1.6335,-1.6337,-1.6311,-1.6311,-1.6311,0,-1.579,-1.5844,-1.588,-1.5915,-1.5941,-1.5973,-1.6004,-1.6033,-1.6091,-1.6108,-1.6112,-1.6192,-1.6225,-1.6273,-1.6278,-1.6296,-1.6305,-1.6302,-1.6324,-1.6326,-1.6328,-1.6334,-1.6337,-1.631,-1.631,-1.631,-1.631,0,-1.5827,-1.5864,-1.5883,-1.5939,-1.5967,-1.6,-1.604,-1.6064,-1.6084,-1.6113,-1.6156,-1.6197,-1.6242,-1.6256,-1.6276,-1.6306,-1.6307,-1.6317,-1.6322,-1.6327,-1.6334,-1.6337,-1.6308,-1.6308,-1.6309,-1.6309,0,0,-1.582,-1.5894,-1.5901,-1.5926,-1.5981,-1.601,-1.6044,-1.6089,-1.6108,-1.6147,-1.6175,-1.6228,-1.6237,-1.6264,-1.6288,-1.6307,-1.6319,-1.6314,-1.6316,-1.6313,-1.6354,-1.6347,-1.6349,-1.6331,-1.6331,-1.6332,-1.6351,0,-1.5837,-1.5899,-1.5932,-1.598,-1.6014,-1.6044,-1.6073,-1.6109,-1.6137,-1.6169,-1.6199,-1.6235,-1.6245,-1.6261,-1.6281,-1.6313,-1.6328,-1.6313,-1.6357,-1.6358,-1.6345,-1.6353,-1.6345,-1.6361,-1.6354,-1.6354,-1.6354,0,-1.5866,-1.5904,-1.5955,-1.6006,-1.6021,-1.6047,-1.609,-1.612,-1.6162,-1.6181,-1.6211,-1.6234,-1.6269,-1.6272,-1.6321,-1.6309,-1.633,-1.6348,-1.6349,-1.6355,-1.6357,-1.6358,-1.6367,-1.6369,-1.6359,-1.6359,-1.6359,0,-1.5854,-1.5918,-1.5957,-1.5978,-1.6038,-1.6055,-1.6081,-1.6122,-1.6147,-1.6184,-1.6201,-1.6241,-1.6264,-1.6295,-1.6328,-1.6327,-1.6373,-1.6379,-1.6389,-1.6388,-1.6398,-1.6397,-1.6409,-1.6411,-1.6411,-1.6411,-1.6411,0,-1.587,-1.59,-1.5953,-1.5977,-1.601,-1.6048,-1.608,-1.6108,-1.6144,-1.6173,-1.6202,-1.6228,-1.6271,-1.6302,-1.6329,-1.6365,-1.6375,-1.639,-1.6397,-1.6388,-1.6386,-1.6401,-1.6401,-1.6412,-1.6411,-1.6411,-1.6411,0,-1.5863,-1.59,-1.5944,-1.5997,-1.6011,-1.6034,-1.6079,-1.6102,-1.6131,-1.6167,-1.6178,-1.6222,-1.6261,-1.6297,-1.6349,-1.6366,-1.6403,-1.6411,-1.6389,-1.6392,-1.6401,-1.6399,-1.6424,-1.6428,-1.6427,-1.6427,-1.6427,0,-1.5871,-1.5894,-1.595,-1.5971,-1.5997,-1.6031,-1.6056,-1.6093,-1.6118,-1.6167,-1.6184,-1.6225,-1.6259,-1.6319,-1.6356,-1.6395,-1.6405,-1.6411,-1.6411,-1.6401,-1.6405,-1.6403,-1.6405,-1.641,-1.641,-1.641,-1.6409,0,-1.588,-1.5896,-1.5932,-1.5973,-1.6002,-1.6037,-1.6072,-1.6088,-1.6131,-1.6157,-1.6197,-1.6224,-1.6276,-1.6316,-1.6359,-1.6385,-1.6404,-1.6409,-1.6414,-1.6404,-1.639,-1.6398,-1.6386,-1.6408,-1.6408,-1.6409,-1.6409,-1.6409,-1.588,-1.5902,-1.5944,-1.5982,-1.6013,-1.6045,-1.6069,-1.6101,-1.6135,-1.618,-1.62,-1.624,-1.628,-1.634,-1.6366,-1.6397,-1.6402,-1.6408,-1.641,-1.6411,-1.6409,-1.6385,-1.6405,-1.6405,-1.6406,-1.6406,-1.6406,0,-1.589,-1.5919,-1.5953,-1.6001,-1.6031,-1.6047,-1.6086,-1.611,-1.6145,-1.6181,-1.6214,-1.6259,-1.6297,-1.6337,-1.6377,-1.6395,-1.6405,-1.6404,-1.6403,-1.6409,-1.6403,-1.6395,-1.6396,-1.6396,-1.6396,-1.6396,-1.6396,-1.6396,-1.5899,-1.5937,-1.5958,-1.6011,-1.6039,-1.6079,-1.61,-1.6129,-1.6158,-1.6207,-1.624,-1.6265,-1.6302,-1.6345,-1.6381,-1.6392,-1.6405,-1.6402,-1.6415,-1.6409,-1.6409,-1.641,-1.6402,-1.6405,-1.6405,-1.6419,-1.6419,-1.6419]},{"header":{"parameterUnit":"m.s-1","parameterCategory":1,"la1":30.2991,"la2":30.254,"lo1":-89.0895,"lo2":-89.0444,"dy":0.0017,"dx":0.0017,"nx":28,"ny":28,"refTime":"2024-02-26T09:00:00:Z","depth":0,"parameterNumber":3,"parameterNumberName":"V-component_of_WINDS"},"data":[0,0,0,0,0,0,0,0,0,0,0,0,0,0,0,0,0,0,0,0,0,0,0,0,0,0,0,0,0,0,0,0,0,0,0,0,0,0,0,0,0,0,0,0,0,0,0,0,0,0,0,0,0,0,0,0,0,0,4.0778,4.0779,0,4.0837,4.0837,4.0838,4.0871,4.0871,4.0871,4.0871,4.0931,4.0932,4.0934,0,0,0,0,0,0,0,0,0,0,0,0,0,4.0697,4.0698,4.0778,4.0779,4.078,4.0837,4.0837,4.0838,4.0871,4.0871,4.0871,4.0871,4.093,4.0932,4.0934,0,0,0,0,0,0,0,0,0,0,0,0,0,4.0741,4.0699,4.0778,4.0803,4.0806,4.0836,4.0837,4.0838,4.0871,4.0871,4.0871,4.0871,4.093,4.0932,4.0934,4.0945,0,0,4.0941,4.0942,0,0,0,0,0,0,0,0,4.0739,4.0744,4.0798,4.0801,4.0804,4.0847,4.0831,4.0874,4.0871,4.0846,4.0871,4.0871,4.0903,4.0907,4.0918,4.0947,4.095,4.0941,4.0942,4.0943,4.0944,0,0,0,0,0,0,0,4.0736,4.0742,4.0801,4.0799,4.0803,4.0812,4.0818,4.0839,4.0873,4.0848,4.0851,4.0857,4.0904,4.0915,4.0919,4.0951,4.0941,4.0943,4.0944,4.0945,4.0996,4.0996,0,0,0,0,0,0,4.0728,4.0739,4.0799,4.0803,4.0771,4.0813,4.082,4.0833,4.0873,4.0879,4.0857,4.0858,4.0912,4.0917,4.0921,4.0939,4.0943,4.0945,4.0947,4.0996,4.0996,4.0996,0,0,0,0,0,0,4.0727,4.0733,4.0797,4.0772,4.0781,4.0814,4.0828,4.0834,4.0845,4.0879,4.0885,4.0862,4.0912,4.0918,4.0939,4.0941,4.0946,4.0948,4.0996,4.0996,4.0996,4.0972,0,0,0,0,0,0,4.0724,4.0733,4.0736,4.0772,4.0782,4.0813,4.0828,4.0835,4.0849,4.0852,4.0886,4.0892,4.0912,4.0936,4.0942,4.0944,4.095,4.0996,4.0996,4.0996,4.0973,4.0971,4.097,0,0,0,0,0,4.0721,4.0726,4.0736,4.0743,4.0787,4.0813,4.0819,4.0843,4.0849,4.0854,4.0876,4.089,4.094,4.0938,4.0945,4.0948,4.0996,4.0996,4.0996,4.0974,4.0972,4.097,0,0,0,0,0,0,4.0689,4.0731,4.0743,4.076,4.0783,4.0819,4.0825,4.084,4.0862,4.0863,4.0892,4.09,4.0919,4.0935,4.0932,4.0962,4.097,4.0971,4.095,4.0949,4.0947,4.0943,4.0952,0,0,0,0,0,4.0685,4.0702,4.0738,4.0749,4.0761,4.0791,4.0803,4.082,4.0845,4.0855,4.0879,4.0903,4.0924,4.0937,4.0959,4.0976,4.0985,4.0982,4.098,4.0979,4.098,4.0993,4.0993,4.0996,4.0996,4.0996,0,0,4.0674,4.07,4.0709,4.0744,4.0764,4.0782,4.0799,4.0817,4.0831,4.0858,4.088,4.0898,4.0927,4.0947,4.0957,4.0961,4.0981,4.0979,4.0977,4.0979,4.0993,4.0993,4.0992,4.0996,4.0996,4.0996,0,0,4.0666,4.0686,4.0699,4.0719,4.0749,4.077,4.0773,4.0808,4.0821,4.0844,4.0865,4.0883,4.0918,4.0939,4.0954,4.0957,4.0972,4.0963,4.0955,4.0968,4.0967,4.0967,4.097,4.0971,4.0964,4.0963,4.0963,0,4.0649,4.0677,4.0704,4.0721,4.0737,4.0763,4.0778,4.0796,4.0832,4.0842,4.0847,4.0895,4.0916,4.0942,4.0943,4.0954,4.096,4.0959,4.0965,4.0965,4.0966,4.0969,4.097,4.0962,4.0962,4.0963,4.0963,0,4.0657,4.0676,4.0683,4.0718,4.0735,4.0751,4.0781,4.0795,4.0811,4.0831,4.0856,4.0882,4.0911,4.0918,4.0933,4.0948,4.095,4.096,4.0968,4.0964,4.0967,4.0969,4.0961,4.0961,4.0961,4.0962,0,0,4.0628,4.068,4.0682,4.0699,4.0736,4.0752,4.077,4.0799,4.0811,4.0836,4.0853,4.0884,4.0894,4.0911,4.0929,4.094,4.0943,4.0949,4.095,4.0948,4.0963,4.0957,4.0957,4.0953,4.0954,4.0954,4.0962,0,4.0626,4.066,4.0685,4.071,4.0729,4.0756,4.0772,4.0797,4.0817,4.0838,4.086,4.0883,4.0893,4.0904,4.0916,4.094,4.0947,4.094,4.0971,4.0972,4.0964,4.0959,4.0951,4.0957,4.0963,4.0963,4.0963,0,4.0627,4.0652,4.0679,4.0716,4.0726,4.0739,4.077,4.0788,4.0818,4.0832,4.0853,4.0872,4.0894,4.0901,4.0933,4.0927,4.0942,4.0956,4.0957,4.0961,4.0967,4.0964,4.0959,4.096,4.0965,4.0965,4.0965,0,4.0606,4.0646,4.0668,4.0682,4.0726,4.0735,4.0754,4.0784,4.0801,4.0827,4.0839,4.0867,4.0882,4.0904,4.0931,4.0933,4.0961,4.0969,4.0975,4.0974,4.098,4.0979,4.0978,4.0987,4.0987,4.0987,4.0987,0,4.0601,4.0617,4.0659,4.0673,4.0692,4.0722,4.0741,4.0762,4.0789,4.0808,4.0832,4.085,4.0884,4.0906,4.0928,4.0952,4.0959,4.0972,4.0977,4.097,4.0969,4.098,4.0981,4.0987,4.0987,4.0987,4.0987,0,4.058,4.0609,4.0635,4.0676,4.0686,4.0699,4.0734,4.0749,4.0771,4.0795,4.0803,4.0838,4.0866,4.0896,4.0932,4.0947,4.0971,4.0978,4.0961,4.0965,4.0969,4.0969,4.0976,4.098,4.0985,4.0985,4.0985,0,4.0576,4.0589,4.0631,4.0646,4.0664,4.0688,4.0705,4.0736,4.0754,4.0791,4.0801,4.0831,4.0857,4.09,4.0929,4.0959,4.0968,4.0968,4.0972,4.0966,4.097,4.0969,4.0972,4.0967,4.0967,4.0967,4.0967,0,4.0565,4.058,4.0604,4.0634,4.0655,4.068,4.0706,4.0717,4.0754,4.0772,4.0801,4.0821,4.0861,4.0891,4.0924,4.0944,4.0962,4.0965,4.0969,4.0962,4.0952,4.0959,4.0959,4.0965,4.0965,4.0965,4.0965,4.0965,4.0554,4.0567,4.06,4.0627,4.0651,4.0675,4.0692,4.0718,4.0743,4.0778,4.0794,4.0824,4.0857,4.0904,4.0924,4.0948,4.0953,4.0957,4.0959,4.0959,4.0959,4.0947,4.0954,4.0954,4.0954,4.0954,4.0954,0,4.0546,4.0569,4.0594,4.063,4.0652,4.0668,4.0698,4.0716,4.0742,4.0771,4.0796,4.0831,4.0861,4.0893,4.0926,4.0939,4.0948,4.0947,4.0946,4.0951,4.0951,4.0946,4.0939,4.0939,4.0939,4.0939,4.0939,4.0939,4.0544,4.0569,4.0588,4.0626,4.0649,4.0679,4.0695,4.0719,4.0742,4.078,4.0806,4.0827,4.0858,4.0894,4.0922,4.0931,4.0943,4.0939,4.0951,4.095,4.0951,4.0952,4.0947,4.0941,4.0941,4.0949,4.0949,4.0949]}]]